Location: Bratsk-Energetik
(56.3300°N, 101.7600°E)
Time: 22:12:04
(UTC+08:00)

ISS - Pass Details

Date: 24 May 2017
Orbit: 402 x 409 km, 51.6° (Epoch: 25 May)

Event Time Altitude Azimuth Distance (km) Brightness Sun altitude
Rises 23:17:46 0° 221° (SW) 2,326 -0.2 -9.2°
Reaches altitude 10° 23:20:12 10° 204° (SSW) 1,467 -1.4 -9.4°
Maximum altitude 23:22:40 20° 155° (SSE) 1,016 -2.5 -9.5°
Drops below altitude 10° 23:25:09 10° 106° (ESE) 1,469 -1.4 -9.7°
Sets 23:27:34 0° 89° (E) 2,330 -0.2 -9.8°
